Location: Sieroty
(50.4765°N, 18.6075°E)
Time: 08:49:53
(UTC+00:00)

Daily predictions for brighter satellites

Satellite Brightness Start Highest point End
(mag) Time Altitude Azimuth Time Altitude Azimuth Time Altitude Azimuth
Timation 2 Rocket 4.2 15:46:21 10° NNW 15:52:59 83° ENE 15:59:48 10° SSE
Cosmos 2369 Rocket 3.8 15:49:02 10° WSW 15:54:04 31° NW 15:59:09 10° NNE
Cosmos 2297 Rocket 2.3 15:48:59 10° NNW 15:54:37 57° NE 16:00:11 10° SE
CORIOLIS 4.2 15:50:07 10° SSE 15:55:25 67° ENE 16:00:45 10° N
CZ-4 R/B 2.9 15:53:05 10° E 15:55:25 16° ENE 15:57:45 10° NNE
Cosmos 1758 Rocket 3.7 15:51:25 10° NNW 15:55:51 85° W 16:00:12 10° S
SL-4 R/B 1.7 15:53:15 10° W 15:56:45 72° N 16:00:26 10° E
Cosmos 1346 Rocket 4.2 15:54:35 10° NNE 15:57:30 19° ENE 16:00:24 10° ESE
Cosmos 2058 4.3 15:54:45 10° NNE 15:57:38 18° ENE 16:00:29 10° ESE
Cosmos 1452 Rocket 4.2 15:53:58 10° SW 15:59:10 59° WNW 16:04:25 10° NNE
Cosmos 1356 Rocket 4.4 15:57:21 10° SSW 16:01:33 53° WNW 16:05:48 10° N
H-2A R/B 4.3 15:59:59 10° SSW 16:03:28 40° W 16:06:59 10° NNW
CZ-2C R/B 4.2 15:59:43 10° ESE 16:04:19 26° ENE 16:08:47 10° N
Cosmos 1953 4.0 16:01:35 10° SW 16:05:15 35° WNW 16:08:57 10° N
Cosmos 1606 Rocket 3.5 16:05:17 10° S 16:09:38 66° E 16:14:02 10° NNE
NOSS 3-4 (A) 4.4 16:05:04 10° NW 16:11:13 38° NNE 16:17:59 10° E
NOSS 3-4 (C) 4.4 16:05:10 10° NW 16:11:19 38° NNE 16:18:05 10° E
YAOGAN 6 3.6 16:12:26 10° S 16:16:02 52° W 16:19:41 10° NNW
FengYun 1-2 T 4.2 16:11:31 10° SSE 16:17:10 77° ENE 16:22:48 10° NNW
USA 305 2.9 16:13:09 10° WNW 16:17:30 81° NNE 16:21:48 10° ESE
SKYMED 2 4.4 16:14:33 10° NNE 16:18:24 29° E 16:22:12 10° SSE
Meteor 2-16 Rocket 4.4 16:13:11 10° N 16:19:19 79° E 16:25:24 10° SSE
Cosmos 292 Rocket 3.7 16:15:21 10° SSW 16:20:08 75° ESE 16:24:59 10° NNE
Cosmos 1943 Rocket 4.4 16:17:06 10° WNW 16:20:44 17° NNW 16:24:22 10° N
Cosmos 1455 3.6 16:21:14 10° SE 16:23:46 17° E 16:26:19 10° NE
USA 306 2.9 16:19:41 10° WNW 16:24:00 86° NNE 16:28:15 10° ESE
SeaSat 1 3.8 16:20:50 12° E 16:24:02 21° NE 16:27:40 10° N
H-2A R/B 3.1 16:20:45 10° ESE 16:25:11 26° ENE 16:29:39 10° N
Aureole 3 Rocket 3.6 16:21:16 10° SSE 16:25:25 50° E 16:31:13 10° NNE
BREEZE-M R/B 4.0 16:15:54 10° W 16:26:31 79° S 16:28:59 15° E
Cosmos 2219 3.3 16:22:21 10° NNW 16:28:09 84° WSW 16:33:55 10° SSE
USA 215 3.7 16:22:49 11° ENE 16:28:49 51° N 16:35:06 10° WNW
Okean-O 3.1 16:25:13 10° SE 16:29:18 37° ENE 16:33:24 10° N
Cosmos 1745 Rocket 4.3 16:23:37 10° N 16:29:39 45° ENE 16:35:41 10° SE
SMAP 3.9 16:25:32 10° S 16:30:05 54° W 16:34:41 10° NNW
ATLAS 5 CENTAUR R/B 3.6 16:27:50 10° WNW 16:31:21 21° NNW 16:35:17 10° NE
Cosmos 1331 Rocket 4.2 16:26:28 10° SSW 16:31:38 74° WNW 16:36:49 10° NNE
ATLAS 2AS CENTAUR R/B 3.5 16:26:02 10° NW 16:33:16 41° NNE 16:38:50 15° E
FALCON 9 DEB 3.0 16:30:14 10° WSW 16:33:26 69° SSE 16:35:34 20° ENE
Cosmos 2082 3.8 16:29:44 10° NNW 16:35:24 56° NE 16:41:02 10° SE
FALCON 9 DEB 2.9 16:32:15 10° WSW 16:35:27 74° SSE 16:37:27 21° ENE
YAOGAN 3 4.5 16:32:18 10° SSE 16:36:39 76° ENE 16:41:02 10° NNW
Lacrosse 5 2.7 16:32:35 10° WNW 16:37:21 39° N 16:41:00 16° ENE
Cosmos 1953 Rocket 4.2 16:34:08 10° NNW 16:38:30 62° W 16:42:53 10° S
ARGOS 4.1 16:35:50 10° ESE 16:40:10 26° ENE 16:44:38 10° N
GEOS 3 Rocket 4.2 16:36:12 14° E 16:40:27 42° NE 16:45:31 10° NW
Cosmos 1656 3.7 16:36:42 10° S 16:42:08 57° ESE 16:47:42 10° NE
Cosmos 968 Rocket 3.4 16:37:34 10° NNW 16:42:50 82° ENE 16:48:01 10° SSE
Cosmos 1408 2.9 16:39:58 10° N 16:43:27 41° ENE 16:46:56 10° SSE
Cosmos 2058 Rocket 3.0 16:42:58 10° S 16:47:28 81° E 16:52:01 10° NNE
ERBS 3.7 16:46:34 10° NW 16:49:29 27° N 16:50:49 20° NE
ADEOS Rocket 4.2 16:43:41 10° N 16:49:49 51° WNW 16:56:36 10° SW
FALCON 9 DEB 2.9 16:46:50 10° WSW 16:50:05 85° SSE 16:51:36 29° ENE
Cosmos 1689 Rocket 2.0 16:49:48 11° NNE 16:52:27 52° E 16:55:17 10° S
Cosmos 2369 4.3 16:47:59 10° S 16:53:04 35° ESE 16:57:12 15° NE
USA 281 4.4 16:47:12 10° S 16:53:28 46° WSW 16:59:46 10° NW
Cosmos 1076 Rocket 3.7 16:51:13 10° N 16:55:20 45° ENE 16:59:25 10° SSE
IRS-1C Rocket 4.2 16:51:22 10° SSE 16:56:39 84° WSW 17:01:58 10° NNW
SJ 16-02 3.6 16:56:27 10° NNE 16:56:44 10° NNE 16:56:44 10° NNE
FALCON 9 DEB 3.0 16:54:58 10° WNW 16:58:24 78° NNE 16:59:43 35° E
Cosmos 1709 Rocket 4.3 16:53:04 10° N 16:59:09 43° ENE 17:05:12 10° SE
Cosmos 2227 Rocket 2.6 16:53:34 10° NW 16:59:11 65° WSW 17:04:46 10° SSE
SL-08 ROCKET BODY 4.4 16:53:03 10° N 16:59:12 78° E 17:05:23 10° SSE
Cosmos 1892 2.7 16:55:35 10° N 16:59:29 87° W 17:03:22 10° S
FALCON 9 DEB 2.9 16:56:28 10° WSW 16:59:41 84° NNW 17:00:47 38° ENE
CZ-4C R/B 3.5 16:54:24 10° NW 17:00:24 36° NNE 17:04:27 22° ENE
CSL-04 Rocket 3.9 16:55:59 10° SE 17:01:15 47° ENE 17:06:30 10° N
Cosmos 2263 Rocket 3.0 16:56:12 10° NNW 17:01:18 32° NE 17:03:25 25° E
Cosmos 1939 Rocket 3.1 16:57:57 10° S 17:01:53 69° WSW 17:05:47 10° NNW
Cosmos 1302 Rocket 4.2 16:58:58 10° SSW 17:04:14 74° WNW 17:09:34 10° NNE
H-2A R/B 4.3 17:01:05 10° N 17:04:28 24° WNW 17:07:48 10° WSW
COSMO-SKYMED 1 2.5 17:02:15 10° NNE 17:06:39 85° ESE 17:10:59 10° SSW
USA 307 3.3 17:03:27 10° WNW 17:07:42 60° SSW 17:10:16 22° SE
SAR-Lupe-4 3.8 17:04:45 10° N 17:08:20 68° WNW 17:11:53 10° SSW
CZ-4B R/B 3.1 17:09:21 10° N 17:12:17 32° WNW 17:15:07 10° SW
USA 308 3.4 17:08:26 10° WNW 17:12:39 57° SSW 17:15:03 24° SE
Cosmos 1400 Rocket 3.6 17:09:26 10° SSW 17:13:27 53° WNW 17:17:27 10° N
Cosmos 1825 2.1 17:11:25 10° N 17:15:11 62° ENE 17:17:29 22° SSE
Cosmos 1697 Rocket 2.7 17:09:48 10° S 17:15:16 57° ESE 17:19:39 16° NE
ERS-2 3.9 17:12:41 10° N 17:16:00 33° WNW 17:19:17 10° SW
Helios 1A Rocket 3.3 17:15:04 10° S 17:19:09 67° WSW 17:23:15 10° NNW
YAOGAN 1 2.5 17:17:10 10° SSE 17:21:30 90° NNW 17:25:52 10° NNW
Cosmos 1503 Rocket 4.1 17:17:27 10° NNW 17:22:42 80° WSW 17:27:57 10° SSE
S3M 3.8 17:16:40 10° S 17:22:46 79° E 17:28:58 10° NNE
BREEZE-M TANK 3.6 17:16:56 10° W 17:23:30 42° SSW 17:25:00 28° SSE
Cosmos 2315 Rocket 4.2 17:20:45 10° SSE 17:26:35 46° E 17:32:28 10° NNE
CZ-2D R/B 4.2 17:23:35 10° S 17:27:17 48° W 17:30:59 10° NNW
Cosmos 1812 Rocket 3.4 17:23:53 10° S 17:28:13 64° E 17:32:33 10° NNE
Meteor 2-1 Rocket 4.0 17:23:17 10° S 17:28:46 81° E 17:34:20 10° NNE
Cosmos 44 4.4 17:25:37 10° WSW 17:29:56 38° NW 17:33:26 16° NNE
CZ-4 R/B 1.7 17:26:12 10° S 17:30:01 61° WSW 17:33:52 10° NNW
Cosmos 1346 Rocket 3.8 17:30:17 10° NNW 17:34:08 47° W 17:37:57 10° S
Cosmos 2058 3.7 17:30:52 10° NNW 17:34:52 51° W 17:38:50 10° S
Cosmos 1354 Rocket 4.2 17:30:14 10° NNW 17:35:30 72° WSW 17:40:45 10° SSE
SL-4 R/B 1.8 17:32:46 10° WNW 17:36:20 65° SSW 17:36:32 64° S
Cosmos 2151 3.0 17:33:47 10° N 17:37:30 56° NE 17:37:30 56° NE
Cosmos 2297 Rocket 4.2 17:33:33 10° NW 17:38:20 29° WSW 17:43:07 10° SSW
Cosmos 1980 Rocket 2.3 17:33:32 10° S 17:38:54 48° ESE 17:39:22 47° E
SJ-11-01 4.2 17:35:51 14° SSE 17:39:52 90° SW 17:44:36 10° NNW
Cosmos 1992 Rocket 3.9 17:35:32 10° SSW 17:40:44 85° WNW 17:45:23 13° NNE
Timation 1 Rocket 4.4 17:35:55 10° NNW 17:41:58 78° WSW 17:46:16 20° SSE
Meteor 2-15 Rocket 4.4 17:37:13 10° S 17:43:23 85° W 17:49:34 10° N
CZ-2C R/B 3.6 17:38:02 10° S 17:43:46 67° WSW 17:49:20 10° NNW
CSL-04 Debris 4.2 17:38:45 10° SSE 17:44:12 82° WSW 17:49:44 10° NNW
Cosmos 1315 Rocket 3.2 17:43:14 10° SSW 17:47:11 64° WNW 17:51:13 10° N
CRYOSAT 2 4.4 17:44:20 10° N 17:49:13 79° W 17:54:04 10° SSW
Ariane Rocket 3.5 17:53:41 42° NNE 17:53:41 42° NNE 17:57:36 10° N
Geosat 3.9 17:52:54 61° SE 17:52:54 61° SE 17:57:40 10° SSW
Cosmos 2227 4.1 17:50:26 10° NNW 17:56:04 68° ENE 17:56:38 63° E
BREEZE-M R/B 4.1 17:52:25 10° W 17:56:44 64° SSW 17:59:00 42° SE
Meteor 2-10 Rocket 4.2 17:52:02 10° SSW 17:57:10 53° WNW 18:02:10 10° N
USA 305 4.4 17:53:27 10° WNW 17:57:14 30° SW 17:58:11 27° SSW
Cosmos 1455 3.3 17:55:25 10° SSW 17:59:02 44° WNW 18:02:44 10° N
SeaSat 1 2.3 18:00:38 77° ESE 18:00:58 84° ENE 18:05:56 10° NNW
Cosmos 2360 4.1 17:56:26 10° SSW 18:02:10 88° WNW 18:04:36 37° NNE
NOSS 3-4 (A) 3.7 17:55:59 10° NW 18:02:54 88° SW 18:05:39 43° SE
NOSS 3-4 (C) 3.7 17:56:05 10° NW 18:03:00 88° SW 18:05:43 44° SE
USA 306 4.5 18:00:02 10° W 18:03:41 28° SW 18:04:25 26° SSW
H-2A R/B 2.6 17:58:51 10° S 18:04:14 62° W 18:09:40 10° NNW
DEBRIS 4.1 17:49:11 10° WSW 18:05:54 69° SSE 18:06:53 59° ESE
MOS 1 Rocket 3.5 18:02:35 10° N 18:07:16 73° WNW 18:12:14 10° SSW
IRS-1A Rocket 4.2 18:10:51 63° NE 18:10:51 63° NE 18:15:50 10° NNW
USA 215 3.3 18:10:10 56° ENE 18:11:24 67° NNE 18:17:53 10° WNW
Cosmos 2278 3.5 18:06:42 10° SSW 18:12:24 85° ESE 18:12:45 78° NE
NOSS 3-3 (A) 4.0 18:07:50 10° SW 18:13:48 76° NW 18:16:10 42° NNE
MOS 1 4.4 18:14:38 59° NNE 18:14:38 59° NNE 18:19:32 10° N
NOSS 3-3 (C) 4.0 18:07:56 10° SW 18:13:55 76° NW 18:16:14 43° NNE
ATLAS 5 CENTAUR R/B 3.7 18:13:54 10° NW 18:17:34 21° N 18:17:34 21° N
GEOS 3 Rocket 4.1 18:17:20 50° S 18:18:21 59° SW 18:23:42 10° NW
Meteor 2-3 Rocket 3.6 18:13:42 10° NNW 18:19:29 89° ENE 18:19:36 86° SSE
ARGOS 3.6 18:17:21 29° S 18:20:05 60° W 18:25:29 10° NNW
COSMOS 2455 4.2 18:15:19 10° NNW 18:19:43 26° NNE 18:19:43 26° NNE
Lacrosse 5 2.4 18:15:59 10° WNW 18:20:11 53° NNW 18:20:11 53° NNW
Cosmos 44 Rocket 3.8 18:16:18 10° SW 18:19:57 52° SW 18:19:57 52° SW
ATLAS 2AS CENTAUR R/B 2.7 18:17:25 10° NW 18:25:01 83° SW 18:26:16 64° SSE
Cosmos 2278 Rocket 4.4 18:23:02 10° N 18:24:58 13° NNE 18:24:58 13° NNE
Cosmos 1844 Rocket 4.1 18:28:29 10° NNW 18:31:39 27° N 18:31:39 27° N
SJ 16-02 3.7 18:32:38 10° NNW 18:33:43 17° N 18:33:43 17° N
Cosmos 2369 4.5 18:31:34 10° SW 18:37:06 49° NW 18:39:11 34° N
Cosmos 2184 Rocket 4.2 18:35:06 10° N 18:40:25 65° N 18:40:25 65° N
Cosmos 2263 Rocket 2.7 18:39:59 10° NW 18:45:08 58° W 18:45:08 58° W
CZ-4C R/B 2.8 18:42:53 10° NW 18:49:38 80° NNE 18:49:38 80° NNE
Cosmos 2074 Rocket 4.4 18:53:07 10° NNW 18:58:06 56° NW 18:58:06 56° NW
Cosmos 1697 Rocket 4.2 18:54:31 10° WSW 18:59:33 33° NW 19:01:26 26° N
Cosmos 1980 Rocket 3.8 19:17:52 10° WSW 19:21:13 29° W 19:21:13 29° W
